{"data":{"norad_id":40940,"epoch":"2026-09-19T11:51:27.756000Z","epoch_age_seconds":108754,"freshness":"FRESH","line1":"1 40940U 15054A   26262.49407125 -.00000282  00000+0  00000+0 0  9993","line2":"2 40940   0.0124 229.7436 0001754 296.1896 150.5970  1.00271949 40203","mean_motion":1.00271949,"eccentricity":0.0001754,"inclination_deg":0.0124,"raan_deg":229.7436,"arg_perigee_deg":296.1896,"mean_anomaly_deg":150.597,"bstar":0,"rev_number":4020,"period_min":1436.094555218,"perigee_km":35779.153300178,"apogee_km":35793.944672022,"semimajor_km":42164.6859861,"source":"CELESTRAK","updated_at":"2026-09-20T09:00:35.219761Z"}}